Location: Dresden
(51.0483°N, 13.7137°E)
Time: 11:34:38
(UTC+02:00)

ISS - Visible Passes

Search period start: 25 September 2017 00:00
Search period end: 05 October 2017 00:00
Orbit: 401 x 407 km, 51.6° (Epoch: 25 September)

Date Brightness Start Highest point End Pass type
(mag) Time Alt. Az. Time Alt. Az. Time Alt. Az.
26 Sep -2.1 20:28:03 10° SSW 20:29:49 20° SSE 20:29:49 20° SSE visible
27 Sep -1.8 19:36:42 10° S 19:38:29 14° SE 19:39:58 11° ESE visible
27 Sep -1.9 21:11:12 10° SW 21:12:39 23° SW 21:12:39 23° SW visible
28 Sep -3.2 20:19:04 10° SW 20:22:08 37° SSE 20:22:37 34° SE visible
28 Sep -0.6 21:55:09 10° W 21:55:17 11° W 21:55:17 11° W visible
29 Sep -2.5 19:27:07 10° SSW 19:29:52 25° SSE 19:32:28 11° E visible
29 Sep -2.9 21:02:46 10° WSW 21:05:07 44° WSW 21:05:07 44° WSW visible
30 Sep -3.8 20:10:25 10° WSW 20:13:40 60° SSE 20:14:51 34° E visible
30 Sep -0.8 21:46:51 10° W 21:47:31 15° W 21:47:31 15° W visible
01 Oct -3.2 19:18:11 10° SW 19:21:18 42° SSE 19:24:26 10° E visible
01 Oct -3.4 20:54:23 10° W 20:57:10 61° W 20:57:10 61° W visible
02 Oct -3.9 20:01:56 10° WSW 20:05:13 86° SSE 20:06:45 29° E visible
02 Oct -1.0 21:38:27 10° W 21:39:24 18° W 21:39:24 18° W visible
03 Oct -3.7 19:09:32 10° WSW 19:12:47 67° SSE 19:16:03 10° E visible
03 Oct -3.6 20:45:59 10° W 20:48:57 68° WNW 20:48:57 68° WNW visible
04 Oct -3.8 19:53:29 10° W 19:56:46 80° N 19:58:28 26° E visible
04 Oct -1.1 21:30:01 10° W 21:31:06 19° W 21:31:06 19° W visible
